Terminal Aerodrome Forecast
Issued by NWS Miami, FL

Home | Current Version | Previous Version | Text Only | Print | Product List | Glossary On
Versions: 1 2 3 4 5 6 7 8 9 10 11 12 13 14 15 16 17 18 19 20 21 22 23 24 25 26 27 28 29 30 31 32 33 34 35 36 37 38 39 40 41 42 43 44 45 46 47 48 49 50
000
FTUS42 KMFL 272336
TAFPBI
TAF
KPBI 272336Z 2800/2824 16006KT P6SM FEW025 SCT060 OVC200
     FM281500 15008KT P6SM SCT020 BKN050
     FM281800 14008KT P6SM BKN050
     FM282100 13008KT P6SM BKN250=

USA.gov is the U.S. government's official web portal to all federal, state and local government web resources and services.